TimeEDT,TemperatureF,Dew PointF,Humidity,Sea Level PressureIn,VisibilityMPH,Wind Direction,Wind SpeedMPH,Gust SpeedMPH,PrecipitationIn,Events,Conditions,WindDirDegrees,DateUTC
12:58 AM,74.8,72.5,92,30.00,10.0,South,5.8,-,N/A,,Clear,190,2013-08-29 04:58:00
1:58 AM,74.3,71.4,91,30.00,10.0,South,4.6,-,N/A,,Clear,190,2013-08-29 05:58:00
2:58 AM,73.2,71.1,93,29.99,10.0,SW,2.3,-,N/A,,Clear,220,2013-08-29 06:58:00
3:58 AM,72.7,71.1,95,29.98,10.0,South,3.5,-,N/A,,Clear,190,2013-08-29 07:58:00
4:58 AM,71.2,70.9,99,29.98,10.0,Calm,Calm,-,N/A,,Clear,0,2013-08-29 08:58:00
5:58 AM,71.1,71.1,100,29.97,10.0,Calm,Calm,-,N/A,,Clear,0,2013-08-29 09:58:00
6:58 AM,69.4,69.4,100,29.98,10.0,Calm,Calm,-,N/A,,Clear,0,2013-08-29 10:58:00
7:58 AM,72.0,72.0,100,29.99,10.0,Calm,Calm,-,N/A,,Clear,0,2013-08-29 11:58:00
8:58 AM,76.5,73.0,89,29.99,10.0,WSW,8.1,-,N/A,,Partly Cloudy,240,2013-08-29 12:58:00
9:58 AM,80.4,74.3,82,29.99,10.0,West,8.1,-,N/A,,Clear,270,2013-08-29 13:58:00
10:58 AM,84.7,76.1,75,29.98,10.0,WSW,8.1,-,N/A,,Clear,240,2013-08-29 14:58:00
11:58 AM,88.3,77.7,71,29.97,10.0,WSW,9.2,-,N/A,,Clear,250,2013-08-29 15:58:00
12:58 PM,90.3,77.5,66,29.95,10.0,West,13.8,17.3,N/A,,Partly Cloudy,270,2013-08-29 16:58:00
1:58 PM,90.1,76.8,65,29.94,10.0,WSW,12.7,-,N/A,,Mostly Cloudy,240,2013-08-29 17:58:00
2:58 PM,92.7,77.4,61,29.93,10.0,WNW,9.2,-,N/A,,Scattered Clouds,290,2013-08-29 18:58:00
3:58 PM,92.5,77.2,61,29.91,10.0,Variable,5.8,-,N/A,,Mostly Cloudy,0,2013-08-29 19:58:00
4:58 PM,92.5,77.0,60,29.90,10.0,West,8.1,-,N/A,,Partly Cloudy,260,2013-08-29 20:58:00
5:58 PM,91.4,76.5,61,29.90,10.0,West,5.8,-,N/A,,Clear,280,2013-08-29 21:58:00
6:58 PM,90.5,76.5,63,29.89,10.0,West,5.8,-,N/A,,Clear,260,2013-08-29 22:58:00
7:58 PM,85.5,77.0,76,29.90,10.0,WSW,2.3,-,N/A,,Clear,240,2013-08-29 23:58:00
8:58 PM,81.5,78.4,90,29.91,10.0,Calm,Calm,-,N/A,,Clear,0,2013-08-30 00:58:00
9:58 PM,79.9,78.4,95,29.93,10.0,Calm,Calm,-,N/A,,Mostly Cloudy,0,2013-08-30 01:58:00
10:58 PM,82.2,77.0,84,29.92,10.0,WNW,4.6,-,N/A,,Mostly Cloudy,290,2013-08-30 02:58:00
11:58 PM,79.7,76.8,91,29.92,10.0,Calm,Calm,-,N/A,,Clear,0,2013-08-30 03:58:00